Regional Weather Roundup
Issued by NWS Goodland, KS

Home | Current Version | Previous Version | Text Only | Print | Product List | Glossary Off
Versions: 1 2 3 4 5 6 7 8 9 10 11 12 13 14 15 16 17 18 19 20 21 22 23 24 25 26 27 28 29 30 31 32 33 34 35 36 37 38 39 40 41 42 43 44 45 46 47 48 49 50

000
ASUS43 KGLD 011259
RWRGLD

GOODLAND FORECAST AREA HOURLY WEATHER ROUNDUP
NATIONAL WEATHER SERVICE GOODLAND KS
700 AM MDT WED JUL 01 2015

...OFFICIAL OBSERVATIONS...

CITY           SKY/WX    TMP DP  RH WIND       PRES   REMARKS
GOODLAND KS    MOSUNNY   73  55  53 NW12      29.97R
HILL CITY KS   CLOUDY    76  55  48 W8        29.80R
IMPERIAL NEB   MOSUNNY   72  65  78 N9        29.94R
MCCOOK NEB     PTSUNNY   73  66  78 N14       29.87R HAZE
AKRON CO       MOSUNNY   69  58  67 NW9       30.08R
BURLINGTON CO  MOSUNNY   72  55  55 NW13      30.03R
LIMON CO       PTSUNNY   65  56  72 NW5       30.14R
$$

...UNOFFICIAL OBSERVATIONS...

CITY           SKY/WX    TMP DP  RH WIND       PRES   REMARKS
COLBY KS       SUNNY     75  61  60 NW14      29.92R
GOVE KS          N/A     76  32  20 MISG        N/A
NORTON KS      MOSUNNY   73  61  64 NW12      29.82R
SHARON SPRINGS   N/A     72  58  60 NW7         N/A
KIT CARSON CO    N/A     74  54  49 MISG        N/A
YUMA CO          N/A     66  57  73 NW6         N/A
$$


USA.gov is the U.S. government's official web portal to all federal, state and local government web resources and services.